Time,TemperatureF,DewpointF,PressureIn,WindDirection,WindDirectionDegrees,WindSpeedMPH,WindSpeedGustMPH,Humidity,HourlyPrecipIn,Conditions,Clouds,dailyrainin,SoftwareType,DateUTC
2013-01-22 00:02:00,31.0,5.0,-100.00,SSE,161,35.0,41.0,33,0.00,,,-99.99,,2013-01-22 07:02:00,
2013-01-22 00:12:00,31.0,5.0,-100.00,SSE,161,36.0,43.0,32,0.00,,,-99.99,,2013-01-22 07:12:00,
2013-01-22 00:22:00,32.0,4.0,-100.00,SSE,161,39.0,47.0,30,0.00,,,-99.99,,2013-01-22 07:22:00,
2013-01-22 00:32:00,32.0,6.0,-100.00,SSE,162,39.0,45.0,33,0.00,,,-99.99,,2013-01-22 07:32:00,
2013-01-22 00:42:00,32.0,6.0,-100.00,SSE,162,39.0,45.0,33,0.00,,,-99.99,,2013-01-22 07:42:00,
2013-01-22 00:52:00,32.0,6.0,-100.00,SSE,162,40.0,48.0,32,0.00,,,-99.99,,2013-01-22 07:52:00,
2013-01-22 01:02:00,31.0,6.0,-100.00,SSE,164,38.0,47.0,34,0.00,,,-99.99,,2013-01-22 08:02:00,
2013-01-22 01:12:00,31.0,6.0,-100.00,SSE,162,36.0,47.0,34,0.00,,,-99.99,,2013-01-22 08:12:00,
2013-01-22 01:22:00,31.0,7.0,-100.00,SSE,162,38.0,43.0,36,0.00,,,-99.99,,2013-01-22 08:22:00,
2013-01-22 01:32:00,31.0,5.0,-100.00,SSE,161,40.0,47.0,32,0.00,,,-99.99,,2013-01-22 08:32:00,
2013-01-22 01:42:00,32.0,4.0,-100.00,SSE,162,42.0,50.0,29,0.00,,,-99.99,,2013-01-22 08:42:00,
2013-01-22 01:52:00,32.0,4.0,-100.00,SSE,161,42.0,54.0,30,0.00,,,-99.99,,2013-01-22 08:52:00,
2013-01-22 02:02:00,32.0,4.0,-100.00,SSE,158,44.0,52.0,31,0.00,,,-99.99,,2013-01-22 09:02:00,
2013-01-22 02:12:00,32.0,5.0,-100.00,SSE,158,44.0,54.0,31,0.00,,,-99.99,,2013-01-22 09:12:00,
2013-01-22 02:22:00,32.0,5.0,-100.00,SSE,158,45.0,55.0,31,0.00,,,-99.99,,2013-01-22 09:22:00,
2013-01-22 02:32:00,32.0,5.0,-100.00,SSE,155,44.0,52.0,32,0.00,,,-99.99,,2013-01-22 09:32:00,
2013-01-22 02:52:00,31.0,5.0,-100.00,SSE,160,41.0,48.0,32,0.00,,,-99.99,,2013-01-22 09:52:00,
2013-01-22 03:02:00,31.0,4.0,-100.00,SSE,164,38.0,46.0,31,0.00,,,-99.99,,2013-01-22 10:02:00,
2013-01-22 03:12:00,31.0,4.0,-100.00,SSE,164,39.0,50.0,31,0.00,,,-99.99,,2013-01-22 10:12:00,
2013-01-22 03:22:00,31.0,5.0,-100.00,SSE,160,40.0,49.0,33,0.00,,,-99.99,,2013-01-22 10:22:00,
2013-01-22 03:32:00,30.0,5.0,-100.00,SSE,162,37.0,45.0,33,0.00,,,-99.99,,2013-01-22 10:32:00,
2013-01-22 03:42:00,32.0,5.0,-100.00,SSE,160,37.0,49.0,32,0.00,,,-99.99,,2013-01-22 10:42:00,
2013-01-22 03:52:00,31.0,5.0,-100.00,SSE,157,37.0,49.0,32,0.00,,,-99.99,,2013-01-22 10:52:00,
2013-01-22 04:02:00,32.0,5.0,-100.00,SSE,158,37.0,47.0,31,0.00,,,-99.99,,2013-01-22 11:02:00,
2013-01-22 04:12:00,30.0,5.0,-100.00,SSE,161,34.0,41.0,34,0.00,,,-99.99,,2013-01-22 11:12:00,
2013-01-22 04:22:00,29.0,5.0,-100.00,SSE,161,32.0,43.0,35,0.00,,,-99.99,,2013-01-22 11:22:00,
2013-01-22 04:33:00,30.0,4.0,-100.00,SSE,164,32.0,39.0,32,-99.99,,,-99.99,,2013-01-22 11:33:00,
2013-01-22 04:42:00,31.0,3.0,-100.00,SSE,161,34.0,44.0,30,0.00,,,-99.99,,2013-01-22 11:42:00,
2013-01-22 04:53:00,31.0,4.0,-100.00,SSE,164,35.0,42.0,32,0.00,,,-99.99,,2013-01-22 11:53:00,
2013-01-22 05:03:00,31.0,4.0,-100.00,SSE,158,38.0,49.0,30,0.00,,,-99.99,,2013-01-22 12:03:00,
2013-01-22 05:12:00,31.0,4.0,-100.00,SSE,157,40.0,49.0,31,0.00,,,-99.99,,2013-01-22 12:12:00,
2013-01-22 05:23:00,32.0,4.0,-100.00,SSE,157,39.0,52.0,30,0.00,,,-99.99,,2013-01-22 12:23:00,
2013-01-22 05:33:00,31.0,4.0,-100.00,SSE,157,40.0,52.0,31,0.00,,,-99.99,,2013-01-22 12:33:00,
2013-01-22 05:43:00,30.0,5.0,-100.00,SSE,158,38.0,46.0,34,0.00,,,-99.99,,2013-01-22 12:43:00,
2013-01-22 05:52:00,28.0,5.0,-100.00,SSE,161,35.0,42.0,37,0.00,,,-99.99,,2013-01-22 12:52:00,
2013-01-22 06:03:00,29.0,5.0,-100.00,SSE,162,36.0,44.0,36,0.00,,,-99.99,,2013-01-22 13:03:00,
2013-01-22 06:13:00,28.0,5.0,-100.00,SSE,164,35.0,42.0,36,0.00,,,-99.99,,2013-01-22 13:13:00,
2013-01-22 06:23:00,30.0,4.0,-100.00,South,169,37.0,48.0,33,0.00,,,-99.99,,2013-01-22 13:23:00,
2013-01-22 06:33:00,31.0,4.0,-100.00,SSE,165,39.0,47.0,31,0.00,,,-99.99,,2013-01-22 13:33:00,
2013-01-22 06:43:00,-999.0,-99.9,-100.00,SSE,168,37.0,45.0,-999,-99.99,,,-99.99,,2013-01-22 13:43:00,
2013-01-22 06:53:00,30.0,3.0,-100.00,SSE,167,37.0,45.0,31,-99.99,,,-99.99,,2013-01-22 13:53:00,
2013-01-22 07:03:00,29.0,4.0,-100.00,SSE,168,36.0,44.0,34,0.00,,,-99.99,,2013-01-22 14:03:00,
2013-01-22 07:12:00,29.0,4.0,-100.00,South,169,35.0,43.0,33,0.00,,,-99.99,,2013-01-22 14:12:00,
2013-01-22 07:23:00,28.0,4.0,-100.00,SSE,167,35.0,40.0,35,0.00,,,-99.99,,2013-01-22 14:23:00,
2013-01-22 07:43:00,28.0,4.0,-100.00,SSE,165,35.0,43.0,34,0.00,,,-99.99,,2013-01-22 14:43:00,
2013-01-22 07:53:00,29.0,3.0,-100.00,SSE,165,34.0,40.0,33,0.00,,,-99.99,,2013-01-22 14:53:00,
2013-01-22 08:04:00,-999.0,-99.9,-100.00,South,174,35.0,42.0,-999,-99.99,,,-99.99,,2013-01-22 15:04:00,
2013-01-22 08:12:00,29.0,3.0,-100.00,South,179,33.0,40.0,33,0.00,,,-99.99,,2013-01-22 15:12:00,
2013-01-22 08:23:00,29.0,3.0,-100.00,SSE,167,35.0,45.0,32,0.00,,,-99.99,,2013-01-22 15:23:00,
2013-01-22 08:33:00,30.0,4.0,-100.00,SSE,164,37.0,43.0,33,0.00,,,-99.99,,2013-01-22 15:33:00,
2013-01-22 08:43:00,30.0,4.0,-100.00,SSE,164,37.0,45.0,33,0.00,,,-99.99,,2013-01-22 15:43:00,
2013-01-22 08:52:00,30.0,4.0,-100.00,SSE,164,37.0,45.0,33,0.00,,,-99.99,,2013-01-22 15:52:00,
2013-01-22 09:03:00,31.0,5.0,-100.00,SSE,165,37.0,45.0,33,0.00,,,-99.99,,2013-01-22 16:03:00,
2013-01-22 09:13:00,31.0,5.0,-100.00,SSE,168,35.0,42.0,33,0.00,,,-99.99,,2013-01-22 16:13:00,
2013-01-22 09:23:00,32.0,5.0,-100.00,South,171,34.0,42.0,30,0.00,,,-99.99,,2013-01-22 16:23:00,
2013-01-22 09:33:00,33.0,5.0,-100.00,South,174,34.0,41.0,30,0.00,,,-99.99,,2013-01-22 16:33:00,
2013-01-22 09:43:00,33.0,4.0,-100.00,South,171,34.0,45.0,29,0.00,,,-99.99,,2013-01-22 16:43:00,
2013-01-22 09:53:00,34.0,3.0,-100.00,South,169,37.0,46.0,27,0.00,,,-99.99,,2013-01-22 16:53:00,
2013-01-22 10:03:00,34.0,3.0,-100.00,South,169,38.0,44.0,26,0.00,,,-99.99,,2013-01-22 17:03:00,
2013-01-22 10:12:00,35.0,3.0,-100.00,South,169,38.0,45.0,25,0.00,,,-99.99,,2013-01-22 17:12:00,
2013-01-22 10:23:00,35.0,3.0,-100.00,South,169,39.0,48.0,25,0.00,,,-99.99,,2013-01-22 17:23:00,
2013-01-22 10:33:00,36.0,2.0,-100.00,SSE,168,40.0,49.0,23,0.00,,,-99.99,,2013-01-22 17:33:00,
2013-01-22 10:43:00,36.0,3.0,-100.00,SSE,165,41.0,51.0,24,0.00,,,-99.99,,2013-01-22 17:43:00,
2013-01-22 10:53:00,36.0,4.0,-100.00,SSE,168,40.0,52.0,25,0.00,,,-99.99,,2013-01-22 17:53:00,
2013-01-22 11:03:00,36.0,3.0,-100.00,SSE,168,39.0,50.0,24,0.00,,,-99.99,,2013-01-22 18:03:00,
2013-01-22 11:12:00,36.0,4.0,-100.00,SSE,168,40.0,50.0,25,0.00,,,-99.99,,2013-01-22 18:12:00,
2013-01-22 11:23:00,36.0,4.0,-100.00,SSE,168,41.0,50.0,25,0.00,,,-99.99,,2013-01-22 18:23:00,
2013-01-22 11:34:00,-999.0,-99.9,-100.00,South,169,39.0,50.0,-999,-99.99,,,-99.99,,2013-01-22 18:34:00,
2013-01-22 11:43:00,37.0,3.0,-100.00,SSE,168,41.0,50.0,23,0.00,,,-99.99,,2013-01-22 18:43:00,
2013-01-22 11:53:00,37.0,5.0,-100.00,South,169,41.0,49.0,25,0.00,,,-99.99,,2013-01-22 18:53:00,
2013-01-22 12:03:00,37.0,5.0,-100.00,SSE,165,40.0,52.0,26,0.00,,,-99.99,,2013-01-22 19:03:00,
2013-01-22 12:13:00,37.0,5.0,-100.00,SSE,164,42.0,52.0,25,0.00,,,-99.99,,2013-01-22 19:13:00,
2013-01-22 12:23:00,38.0,4.0,-100.00,SSE,165,39.0,49.0,23,0.00,,,-99.99,,2013-01-22 19:23:00,
2013-01-22 12:33:00,38.0,4.0,-100.00,SSE,164,40.0,50.0,23,0.00,,,-99.99,,2013-01-22 19:33:00,
2013-01-22 12:43:00,38.0,5.0,-100.00,SSE,168,39.0,49.0,25,0.00,,,-99.99,,2013-01-22 19:43:00,
2013-01-22 12:53:00,38.0,5.0,-100.00,SSE,167,39.0,50.0,24,0.00,,,-99.99,,2013-01-22 19:53:00,
2013-01-22 13:03:00,39.0,5.0,-100.00,South,171,35.0,44.0,24,0.00,,,-99.99,,2013-01-22 20:03:00,
2013-01-22 13:12:00,39.0,4.0,-100.00,South,169,35.0,43.0,23,0.00,,,-99.99,,2013-01-22 20:12:00,
2013-01-22 13:23:00,39.0,4.0,-100.00,South,172,39.0,48.0,23,0.00,,,-99.99,,2013-01-22 20:23:00,
2013-01-22 13:33:00,39.0,3.0,-100.00,SSE,168,38.0,49.0,22,0.00,,,-99.99,,2013-01-22 20:33:00,
2013-01-22 13:42:00,39.0,4.0,-100.00,South,169,40.0,47.0,22,0.00,,,-99.99,,2013-01-22 20:42:00,
2013-01-22 13:53:00,40.0,4.0,-100.00,South,169,37.0,47.0,22,0.00,,,-99.99,,2013-01-22 20:53:00,
2013-01-22 14:03:00,40.0,3.0,-100.00,South,169,38.0,47.0,21,0.00,,,-99.99,,2013-01-22 21:03:00,
2013-01-22 14:13:00,39.0,4.0,-100.00,South,171,38.0,50.0,23,0.00,,,-99.99,,2013-01-22 21:13:00,
2013-01-22 14:22:00,39.0,4.0,-100.00,South,169,37.0,46.0,22,0.00,,,-99.99,,2013-01-22 21:22:00,
2013-01-22 14:33:00,39.0,2.0,-100.00,South,169,36.0,48.0,21,0.00,,,-99.99,,2013-01-22 21:33:00,
2013-01-22 14:43:00,40.0,2.0,-100.00,South,169,37.0,45.0,21,0.00,,,-99.99,,2013-01-22 21:43:00,
2013-01-22 14:52:00,40.0,2.0,-100.00,SSE,165,39.0,48.0,21,0.00,,,-99.99,,2013-01-22 21:52:00,
2013-01-22 15:02:00,40.0,2.0,-100.00,SSE,167,35.0,47.0,20,0.00,,,-99.99,,2013-01-22 22:02:00,
2013-01-22 15:12:00,40.0,3.0,-100.00,SSE,168,34.0,47.0,21,0.00,,,-99.99,,2013-01-22 22:12:00,
2013-01-22 15:22:00,40.0,1.0,-100.00,SSE,165,34.0,42.0,19,0.00,,,-99.99,,2013-01-22 22:22:00,
2013-01-22 15:32:00,40.0,1.0,-100.00,SSE,165,33.0,42.0,19,0.00,,,-99.99,,2013-01-22 22:32:00,
2013-01-22 15:43:00,40.0,-1.0,-100.00,SSE,165,32.0,44.0,17,0.00,,,-99.99,,2013-01-22 22:43:00,
2013-01-22 15:53:00,40.0,1.0,-100.00,SSE,167,31.0,41.0,19,0.00,,,-99.99,,2013-01-22 22:53:00,
2013-01-22 16:02:00,39.0,1.0,-100.00,SSE,167,31.0,40.0,20,0.00,,,-99.99,,2013-01-22 23:02:00,
2013-01-22 16:12:00,38.0,1.0,-100.00,SSE,167,32.0,40.0,21,0.00,,,-99.99,,2013-01-22 23:12:00,
2013-01-22 16:23:00,38.0,1.0,-100.00,SSE,161,32.0,41.0,21,0.00,,,-99.99,,2013-01-22 23:23:00,
2013-01-22 16:33:00,37.0,2.0,-100.00,SSE,162,28.0,35.0,23,0.00,,,-99.99,,2013-01-22 23:33:00,
2013-01-22 16:42:00,37.0,1.0,-100.00,SSE,165,29.0,35.0,21,0.00,,,-99.99,,2013-01-22 23:42:00,
2013-01-22 16:52:00,37.0,1.0,-100.00,SSE,164,30.0,36.0,22,0.00,,,-99.99,,2013-01-22 23:52:00,
2013-01-22 17:03:00,36.0,2.0,-100.00,SSE,164,29.0,34.0,23,0.00,,,-99.99,,2013-01-23 00:03:00,
2013-01-22 17:12:00,36.0,1.0,-100.00,SSE,165,28.0,34.0,23,0.00,,,-99.99,,2013-01-23 00:12:00,
2013-01-22 17:22:00,35.0,3.0,-100.00,SSE,167,30.0,37.0,25,0.00,,,-99.99,,2013-01-23 00:22:00,
2013-01-22 17:33:00,34.0,4.0,-100.00,SSE,165,29.0,34.0,27,0.00,,,-99.99,,2013-01-23 00:33:00,
2013-01-22 17:42:00,34.0,3.0,-100.00,SSE,168,28.0,32.0,27,0.00,,,-99.99,,2013-01-23 00:42:00,
2013-01-22 17:52:00,33.0,2.0,-100.00,South,178,26.0,32.0,26,0.00,,,-99.99,,2013-01-23 00:52:00,
2013-01-22 18:03:00,33.0,2.0,-100.00,South,181,26.0,32.0,26,0.00,,,-99.99,,2013-01-23 01:03:00,
2013-01-22 18:13:00,33.0,2.0,-100.00,South,178,27.0,32.0,26,0.00,,,-99.99,,2013-01-23 01:13:00,
2013-01-22 18:22:00,33.0,0.0,-100.00,SSE,168,26.0,34.0,24,0.00,,,-99.99,,2013-01-23 01:22:00,
2013-01-22 18:33:00,33.0,3.0,-100.00,SSE,165,29.0,38.0,28,0.00,,,-99.99,,2013-01-23 01:33:00,
2013-01-22 18:52:00,31.0,2.0,-100.00,SSE,168,24.0,32.0,29,0.00,,,-99.99,,2013-01-23 01:52:00,
2013-01-22 19:03:00,33.0,0.0,-100.00,SSE,162,28.0,35.0,24,0.00,,,-99.99,,2013-01-23 02:03:00,
2013-01-22 19:12:00,33.0,0.0,-100.00,SSE,161,28.0,35.0,24,0.00,,,-99.99,,2013-01-23 02:12:00,
2013-01-22 19:23:00,32.0,0.0,-100.00,SSE,165,25.0,32.0,25,0.00,,,-99.99,,2013-01-23 02:23:00,
2013-01-22 19:33:00,32.0,0.0,-100.00,SSE,162,26.0,30.0,25,0.00,,,-99.99,,2013-01-23 02:33:00,
2013-01-22 19:42:00,31.0,1.0,-100.00,SSE,161,22.0,30.0,27,0.00,,,-99.99,,2013-01-23 02:42:00,
2013-01-22 19:53:00,31.0,1.0,-100.00,SSE,154,23.0,29.0,28,0.00,,,-99.99,,2013-01-23 02:53:00,
2013-01-22 20:03:00,32.0,-1.0,-100.00,SSE,152,26.0,33.0,24,0.00,,,-99.99,,2013-01-23 03:03:00,
2013-01-22 20:12:00,33.0,-1.0,-100.00,SSE,151,26.0,33.0,23,0.00,,,-99.99,,2013-01-23 03:12:00,
2013-01-22 20:23:00,36.0,-3.0,-100.00,SSE,151,27.0,34.0,18,0.00,,,-99.99,,2013-01-23 03:23:00,
2013-01-22 20:32:00,36.0,-5.0,-100.00,SSE,151,27.0,35.0,17,0.00,,,-99.99,,2013-01-23 03:32:00,
2013-01-22 20:42:00,35.0,-2.0,-100.00,SSE,151,26.0,32.0,20,0.00,,,-99.99,,2013-01-23 03:42:00,
2013-01-22 20:52:00,34.0,-1.0,-100.00,SSE,155,24.0,28.0,22,0.00,,,-99.99,,2013-01-23 03:52:00,
2013-01-22 21:03:00,35.0,-2.0,-100.00,SSE,157,24.0,32.0,21,0.00,,,-99.99,,2013-01-23 04:03:00,
2013-01-22 21:12:00,35.0,-3.0,-100.00,SSE,157,23.0,29.0,20,0.00,,,-99.99,,2013-01-23 04:12:00,
2013-01-22 21:22:00,36.0,-3.0,-100.00,SSE,158,22.0,27.0,18,0.00,,,-99.99,,2013-01-23 04:22:00,
2013-01-22 21:32:00,37.0,-4.0,-100.00,SSE,154,23.0,30.0,17,0.00,,,-99.99,,2013-01-23 04:32:00,
2013-01-22 21:43:00,36.0,-4.0,-100.00,SSE,154,24.0,31.0,18,0.00,,,-99.99,,2013-01-23 04:43:00,
2013-01-22 21:52:00,37.0,-5.0,-100.00,SSE,148,27.0,31.0,16,0.00,,,-99.99,,2013-01-23 04:52:00,
2013-01-22 22:03:00,35.0,-4.0,-100.00,SSE,152,25.0,34.0,18,0.00,,,-99.99,,2013-01-23 05:03:00,
2013-01-22 22:12:00,35.0,-3.0,-100.00,SSE,155,23.0,30.0,19,0.00,,,-99.99,,2013-01-23 05:12:00,
2013-01-22 22:22:00,36.0,-4.0,-100.00,SSE,154,25.0,33.0,18,0.00,,,-99.99,,2013-01-23 05:22:00,
2013-01-22 22:33:00,33.0,-1.0,-100.00,SSE,155,27.0,34.0,22,0.00,,,-99.99,,2013-01-23 05:33:00,
2013-01-22 22:43:00,34.0,-2.0,-100.00,SSE,154,26.0,32.0,21,0.00,,,-99.99,,2013-01-23 05:43:00,
2013-01-22 22:52:00,34.0,-2.0,-100.00,SSE,155,27.0,36.0,21,0.00,,,-99.99,,2013-01-23 05:52:00,
2013-01-22 23:02:00,35.0,-4.0,-100.00,SSE,157,27.0,34.0,18,0.00,,,-99.99,,2013-01-23 06:02:00,
2013-01-22 23:12:00,36.0,-4.0,-100.00,SSE,155,28.0,36.0,18,0.00,,,-99.99,,2013-01-23 06:12:00,
2013-01-22 23:22:00,36.0,-6.0,-100.00,SSE,157,29.0,35.0,16,0.00,,,-99.99,,2013-01-23 06:22:00,
2013-01-22 23:32:00,36.0,-6.0,-100.00,SSE,157,29.0,34.0,16,0.00,,,-99.99,,2013-01-23 06:32:00,
2013-01-22 23:42:00,36.0,-4.0,-100.00,SSE,165,26.0,32.0,18,0.00,,,-99.99,,2013-01-23 06:42:00,
2013-01-22 23:52:00,35.0,-5.0,-100.00,SSE,164,27.0,32.0,17,0.00,,,-99.99,,2013-01-23 06:52:00,